Location: Deurze
(52.9838°N, 6.6090°E)
Time: 18:13:19
(UTC+00:00)

Cosmos 2026 Rocket - Pass Details

Date: 11 March 2026
Orbit: 938 x 1000 km, 82.9° (Epoch: 20 April)

Event Time Altitude Azimuth Distance (km) Brightness Sun altitude
Rises 17:56:39 0° 174° (S) 3,660 6.9 -4.8°
Reaches altitude 10° 17:59:11 10° 171° (S) 2,708 6.2 -5.1°
Maximum altitude 18:05:14 59° 94° (E) 1,102 4.0 -6.1°
Drops below altitude 10° 18:11:15 10° 16° (NNE) 2,686 6.2 -7.0°
Sets 18:13:45 0° 13° (NNE) 3,628 6.9 -7.3°
